Weather in Cusco

Peru     13°31′43″S   71°58′45″W
temp.,
°C
wind,
m/s
gust,
m/s
humid.,
%
clouds,
%
prec.,
mm/h
press.,
hPa
HPBL,
m
17 june, thu
thu1701:00+4nne228294 0.0 1021127
04:00+3nnw118233 0.0 1021139
07:00+4nnw117450 0.0 1023239
10:00+8w225275 0.0 10211243
13:00+12wsw244051 0.0 10151695
16:00+11nnw235099 0.1 10131432
19:00+9nnw236125 0.2 1016354
22:00+5nnw227834 0.0 1021102
18 june, fri
fri1801:00+4n228176 0.0 1021107
04:00+3nw128457 0.0 1022119
07:00+5wnw127096 0.0 1023560
10:00+7w126098 0.0 1023989
13:00+11sw234534 0.0 10171484
16:00+12w334249 0.0 10141569
19:00+7nw226423 0.0 1018149
22:00+5nw22795 0.0 102156
19 june, sat
sat1901:00+4wnw22850 0.0 102150
04:00+2wnw11895 0.0 102256
07:00+3w118711 0.0 1025107
10:00+9wsw225849 0.0 1022995
13:00+13wnw233958 0.0 10161935
16:00+12wnw234491 0.0 10141499
19:00+9n236079 0.1 1019309
22:00+5n227543 0.0 1022120
20 june, sun
sun2001:00+4nw228425 0.0 102386
04:00+3nw128888 0.0 102470
07:00+4wnw118334 0.0 1026216
10:00+9w12566 0.0 1023970
13:00+12nw2343100 0.0 10171885
16:00+12wnw234846 0.1 10151379
19:00+8wnw23675 0.1 1019119
22:00+5nw227913 0.0 102266
21 june, mon
mon2101:00+4w118468 0.0 102239
04:00+3n118615 0.0 102132
07:00+4wsw00839 0.0 102475
10:00+10w115654 0.0 1021934
13:00+14w233863 0.0 10142056
16:00+13nw334573 0.1 10131509
19:00+9nnw236381 0.2 1017246
22:00+6n22815 0.0 1021124